Regional Weather Roundup
Issued by NWS

Home | Current Version | Previous Version | Graphics & Text | Print | Product List | Glossary On
Versions: 1 2 3 4 5 6 7 8 9 10 11 12 13 14 15 16 17 18 19 20 21 22 23 24 25 26 27 28 29 30 31 32 33 34 35 36 37 38 39 40 41 42 43 44 45 46 47 48 49 50
000
ASUS43 KLOT 232258
RWRIL

ILLINOIS REGIONAL WEATHER ROUNDUP
NATIONAL WEATHER SERVICE CHICAGO/ROMEOVILLE IL
600 PM CDT WED APR 23 2014

NOTE: "FAIR" INDICATES FEW OR NO CLOUDS BELOW 12,000 FEET WITH NO
SIGNIFICANT WEATHER AND/OR OBSTRUCTIONS TO VISIBILITY.

* THESE STATIONS ARE NOT UNDER NWS QUALITY CONTROL. THEY ALSO MAY NOT
  REPORT WEATHER SUCH AS PRECIPITATION OR FOG.

ILZ001-002-007-009-015-016-024-240000-
NORTHWEST ILLINOIS

CITY           SKY/WX    TMP DP  RH WIND       PRES   REMARKS
MOLINE         LGT RAIN  50  39  66 E10       30.01F
$$

ILZ003-004-008-010-011-017-018-240000-
NORTH CENTRAL ILLINOIS

CITY           SKY/WX    TMP DP  RH WIND       PRES   REMARKS
ROCKFORD       NOT AVBL
$$

ILZ005-006-012>014-019>023-240000-
NORTHEAST ILLINOIS

CITY           SKY/WX    TMP DP  RH WIND       PRES   REMARKS
CHICAGO-OHARE  CLOUDY    46  20  35 NE6       30.12S
CHICAGO-MIDWAY CLOUDY    47  25  42 NE7       30.12F
AURORA         CLOUDY    53  26  35 NE10      30.10F
WAUKEGAN       CLOUDY    41  20  43 NE8       30.13S
DUPAGE AIRPORT CLOUDY    49  25  39 NE8       30.11S
WHEELING       CLOUDY    44  22  41 NE8       30.14F
NORTHERLY ISL    N/A     40  28  63 N12         N/A
$$

LMZ740>746-240000-
SOUTHERN LAKE MICHIGAN

STATION/POSITION SKY/WX   TEMP    WIND        PRES    VSBY  WAVE
                          AIR SEA DIR/SP/G                  HT/PER
                          (F)     (DEG/KT/KT) (MB)    (MI)  (FT/S)
WAUKEGAN HARBOR            39      30/  9/ 11 1021.7F
HARRISON CRIB              38      10/ 10/ 11   N/A
BURNHAM HARBOR             41      20/ 10/ 13   N/A
CALUMET HARBOR             40     360/  8/ 11 1021.1F
MICHIGAN CITY              38      10/ 10/ 12   N/A
$$

ILZ025>027-034>036-040-047-049-050-058-095>099-240000-
WEST-CENTRAL ILLINOIS

CITY           SKY/WX    TMP DP  RH WIND       PRES   REMARKS
$$

ILZ028>032-037-038-041>044-048-051>054-059>061-240000-
CENTRAL ILLINOIS

CITY           SKY/WX    TMP DP  RH WIND       PRES   REMARKS
PEORIA         NOT AVBL
SPRINGFIELD    CLOUDY    62  26  25 E10       30.03F
TAYLORVILLE    NOT AVBL
$$

ILZ033-039-045-046-055>057-062-063-240000-
EAST-CENTRAL ILLINOIS

CITY           SKY/WX    TMP DP  RH WIND       PRES   REMARKS
CHAMPAIGN      MOSUNNY   60  27  28 E7        30.06S
MATTOON        CLOUDY    59  28  30 E7        30.04S
$$

ILZ079-100>102-240000-
SOUTHWEST ILLINOIS

CITY           SKY/WX    TMP DP  RH WIND       PRES   REMARKS
ALTON          CLOUDY    61  28  29 E9        30.01F
CAHOKIA*       CLOUDY    62  38  40 E8        29.99F
$$

ILZ064>066-069>071-074>076-080>082-084>086-088>090-092>094-240000-
SOUTH-CENTRAL ILLINOIS

CITY           SKY/WX    TMP DP  RH WIND       PRES   REMARKS
CARBONDALE     SUNNY     65  38  36 E9        30.00F
$$

ILZ067-068-072-073-078-083-087-091-240000-
SOUTHEAST ILLINOIS

CITY           SKY/WX    TMP DP  RH WIND       PRES   REMARKS
$$

ABBREVIATIONS USED IN REMARKS
   TC - TEMPERATURE IN CELSIUS
  WCI - WIND CHILL INDEX
   HX - HEAT INDEX
  VSB - VISIBILITY
$$




USA.gov is the U.S. government's official web portal to all federal, state and local government web resources and services.